• Processing (Info)

  • MPEC 2010-A54 : 2010 AE30

    The following Minor Planet Electronic Circular may be linked-to from your own Web pages, but must not otherwise be redistributed electronically.

    A form allowing access to any MPEC is at the bottom of this page.


    Read MPEC 2010-A53 Read MPEC 2010-A55


    M.P.E.C. 2010-A54                                Issued 2010 Jan. 11, 14:37 UT
    
         The Minor Planet Electronic Circulars contain information on unusual
             minor planets and routine data on comets.  They are published
       on behalf of Commission 20 of the International Astronomical Union by the
              Minor Planet Center, Smithsonian Astrophysical Observatory,
                              Cambridge, MA 02138, U.S.A.
    
                 Prepared using the Tamkin Foundation Computer Network
    
                                  MPC@CFA.HARVARD.EDU
              URL http://www.cfa.harvard.edu/iau/mpc.html  ISSN 1523-6714
    
                                       2010 AE30
    
    Observations:
         K10A30E* C2010 01 10.20528 05 23 44.75 +11 03 06.5          18.6   EA054704
         K10A30E  C2010 01 10.21851 05 23 35.64 +11 01 17.6          19.3   EA054704
         K10A30E  C2010 01 10.23127 05 23 26.80 +10 59 31.9          19.6   EA054704
         K10A30E  C2010 01 10.24403 05 23 17.96 +10 57 46.5          19.8   EA054704
         K10A30E  C2010 01 10.25680 05 23 09.15 +10 56 01.3          19.4   EA054704
         K10A30E  C2010 01 11.28449 05 11 17.55 +08 23 14.4          19.4 V EA054G96
         K10A30E  C2010 01 11.28497 05 11 17.23 +08 23 10.2          18.8 V EA054G96
         K10A30E  C2010 01 11.28545 05 11 16.83 +08 23 05.4          19.9 V EA054G96
         K10A30E  C2010 01 11.28591 05 11 16.47 +08 23 00.8          19.0 V EA054G96
         K10A30E  C2010 01 11.28639 05 11 16.11 +08 22 56.3          18.6 V EA054G96
    
    Observer details:
    704 Lincoln Laboratory ETS, New Mexico.  Observers M. Blythe, G. Spitz,
        R. Brungard, J. Paige, P. Festler.  1.0-m f/2.15 reflector + CCD.
    G96 Mt. Lemmon Survey.  Observer A. Boattini.  Measurers J. D. Ahern,
        E. C. Beshore, A. Boattini, G. J. Garradd, A. R. Gibbs, A. D. Grauer,
        R. E. Hill, R. A. Kowalski, S. M. Larson, R. H. McNaught.  1.5-m reflector
        + CCD.
    
    Orbital elements:
    2010 AE30                                                Earth MOID = 0.0033 AU
    Epoch 2010 Jan. 4.0 TT = JDT 2455200.5                  MPC
    M 313.44037              (2000.0)            P               Q
    n   0.67758548     Peri.  277.31638     -0.95245152     +0.28791057
    a   1.2837880      Node   279.45503     -0.22409310     -0.88367489
    e   0.4217608      Incl.    5.80200     -0.20644222     -0.36908833
    P   1.45           H   23.3           G   0.15           U   9
    Residuals in seconds of arc
    100110 704  0.2-  0.3+    100110 704  0.1+  0.5+    100111 G96  0.2-  0.0
    100110 704  0.1+  0.1+    100111 G96  0.5-  0.1-    100111 G96  0.0   0.1+
    100110 704  0.2-  0.4-    100111 G96  0.2+  0.3+
    100110 704  0.4-  0.2-    100111 G96  0.2-  0.1+
    
    Ephemeris:
    2010 AE30                a,e,i = 1.28, 0.42, 6                   q = 0.7423
    Date    TT    R. A. (2000) Decl.     Delta      r     Elong.  Phase     V
    2010 01 04    06 12.28   +20 30.9    0.109    1.091   169.1     9.8    19.3
    2010 01 06    05 59.94   +18 17.1    0.0971   1.077   163.8    14.8    19.2
    2010 01 08    05 44.78   +15 22.6    0.0854   1.063   157.4    20.8    19.1
    2010 01 10    05 25.93   +11 31.6    0.0747   1.049   149.8    28.1    19.0
    2010 01 12    05 02.23   +06 23.9    0.0650   1.035   140.5    37.2    18.9
    2010 01 14    04 32.20   -00 21.8    0.0571   1.020   128.9    48.6    18.9
    2010 01 16    03 54.32   -08 52.2    0.0514   1.006   114.8    62.5    19.1
    2010 01 18    03 07.74   -18 29.6    0.0487   0.992    98.7    78.5    19.5
    2010 01 20    02 13.78   -27 38.5    0.0494   0.978    82.1    95.0    20.1
    2010 01 22    01 16.96   -34 40.0    0.0535   0.965    67.1   110.0    21.0
    2010 01 24    00 23.40   -39 02.0    0.0601   0.951    54.8   122.3    22.1
    
    Sonia Keys                   (C) Copyright 2010 MPC           M.P.E.C. 2010-A54
    

    Read MPEC 2010-A53 Read MPEC 2010-A55


    MPEC number:

    Enter an MPEC number in one of the following forms:

    • 1997-B01 (the full form)
    • J97B01 (the packed version of the full form)
    • B01 (the abbreviated form)